| time (UTC) | temp F | wind direction | speed MPH | gust MPH | rain 1hr in | rain 24hr in | rain mn in | humidity % | barometer mb |
| 20260502130554 | 71 | 112 | 6.0 | 10.0 | 0.00 | 0.00 | 0.00 | 42 | 1025.2 |
| 20260502123554 | 71 | 128 | 5.0 | 7.0 | 0.00 | 0.00 | 0.00 | 41 | 1025.1 |
| 20260502123054 | 71 | 146 | 8.0 | 13.0 | 0.00 | 0.00 | 0.00 | 41 | 1025.2 |
| 20260502122553 | 70 | 148 | 6.0 | 8.0 | 0.00 | 0.00 | 0.00 | 42 | 1025.2 |
| 20260502122053 | 71 | 125 | 5.0 | 8.0 | 0.00 | 0.00 | 0.00 | 41 | 1025.4 |
| 20260502121553 | 71 | 135 | 8.0 | 9.0 | 0.00 | 0.00 | 0.00 | 42 | 1025.5 |
| 20260502121054 | 71 | 128 | 7.0 | 10.0 | 0.00 | 0.00 | 0.00 | 41 | 1025.4 |
| 20260502120553 | 70 | 145 | 9.0 | 14.0 | 0.00 | 0.00 | 0.00 | 41 | 1025.6 |
| 20260502115554 | 70 | 124 | 7.0 | 9.0 | 0.00 | 0.00 | 0.00 | 41 | 1025.6 |
| 20260502115053 | 70 | 150 | 5.0 | 6.0 | 0.00 | 0.00 | 0.00 | 41 | 1025.8 |
| 20260502114552 | 69 | 131 | 10.0 | 13.0 | 0.00 | 0.00 | 0.00 | 41 | 1025.7 |
| 20260502114054 | 69 | 127 | 8.0 | 10.0 | 0.00 | 0.00 | 0.00 | 41 | 1025.9 |
| 20260502113553 | 69 | 120 | 8.0 | 10.0 | 0.00 | 0.00 | 0.00 | 41 | 1026.0 |
| 20260502113053 | 70 | 135 | 8.0 | 13.0 | 0.00 | 0.00 | 0.00 | 40 | 1025.9 |
| 20260502112553 | 71 | 120 | 6.0 | 9.0 | 0.00 | 0.00 | 0.00 | 40 | 1025.9 |
| 20260502112053 | 70 | 113 | 5.0 | 8.0 | 0.00 | 0.00 | 0.00 | 41 | 1026.1 |
| 20260502111554 | 70 | 118 | 7.0 | 9.0 | 0.00 | 0.00 | 0.00 | 41 | 1026.3 |
| 20260502111053 | 70 | 112 | 8.0 | 13.0 | 0.00 | 0.00 | 0.00 | 41 | 1026.3 |
| 20260502110553 | 70 | 135 | 9.0 | 12.0 | 0.00 | 0.00 | 0.00 | 41 | 1026.4 |
| 20260502110053 | 69 | 135 | 8.0 | 10.0 | 0.00 | 0.00 | 0.00 | 41 | 1026.6 |
| 20260502105552 | 69 | 112 | 8.0 | 9.0 | 0.00 | 0.00 | 0.00 | 40 | 1026.6 |
| 20260502105054 | 69 | 114 | 3.0 | 8.0 | 0.00 | 0.00 | 0.00 | 42 | 1026.8 |
| 20260502104553 | 68 | 123 | 7.0 | 10.0 | 0.00 | 0.00 | 0.00 | 40 | 1026.7 |
| 20260502104052 | 68 | 135 | 7.0 | 8.0 | 0.00 | 0.00 | 0.00 | 40 | 1026.9 |
| 20260502103554 | 68 | 130 | 7.0 | 10.0 | 0.00 | 0.00 | 0.00 | 41 | 1026.9 |
| 20260502103053 | 68 | 135 | 7.0 | 10.0 | 0.00 | 0.00 | 0.00 | 40 | 1027.0 |
| 20260502102553 | 69 | 155 | 6.0 | 10.0 | 0.00 | 0.00 | 0.00 | 40 | 1027.1 |
| 20260502102054 | 68 | 112 | 6.0 | 10.0 | 0.00 | 0.00 | 0.00 | 41 | 1027.1 |
| 20260502101553 | 68 | 135 | 8.0 | 13.0 | 0.00 | 0.00 | 0.00 | 40 | 1027.1 |
| 20260502101052 | 68 | 130 | 6.0 | 8.0 | 0.00 | 0.00 | 0.00 | 40 | 1027.3 |
| 20260502100553 | 69 | 123 | 7.0 | 10.0 | 0.00 | 0.00 | 0.00 | 40 | 1027.2 |
| 20260502091053 | 67 | 142 | 5.0 | 7.0 | 0.00 | 0.00 | 0.00 | 39 | 1027.7 |
| 20260502090552 | 66 | 137 | 3.0 | 8.0 | 0.00 | 0.00 | 0.00 | 40 | 1027.9 |
| 20260502071053 | 64 | 135 | 1.0 | 3.0 | 0.00 | 0.00 | 0.00 | 36 | 1028.5 |
| 20260502070553 | 62 | 135 | 3.0 | 6.0 | 0.00 | 0.00 | 0.00 | 40 | 1028.7 |
| 20260502070054 | 61 | 135 | 3.0 | 5.0 | 0.00 | 0.00 | 0.00 | 40 | 1028.8 |
| 20260502065553 | 61 | 135 | 2.0 | 3.0 | 0.00 | 0.00 | 0.00 | 41 | 1028.7 |
| 20260502065052 | 60 | 135 | 3.0 | 6.0 | 0.00 | 0.00 | 0.00 | 42 | 1028.8 |
| 20260502064554 | 60 | 135 | 3.0 | 5.0 | 0.00 | 0.00 | 0.00 | 43 | 1028.7 |
| 20260502064053 | 60 | 135 | 3.0 | 6.0 | 0.00 | 0.00 | 0.00 | 44 | 1028.9 |
| 20260502063552 | 59 | 135 | 2.0 | 5.0 | 0.00 | 0.00 | 0.00 | 43 | 1028.8 |
| 20260502063052 | 59 | 135 | 3.0 | 3.0 | 0.00 | 0.00 | 0.00 | 43 | 1028.9 |
| 20260502062553 | 58 | 135 | 0.0 | 1.0 | 0.00 | 0.00 | 0.00 | 48 | 1028.9 |
| 20260502062052 | 57 | 135 | 2.0 | 3.0 | 0.00 | 0.00 | 0.00 | 45 | 1029.0 |
| 20260502061554 | 57 | 135 | 5.0 | 7.0 | 0.00 | 0.00 | 0.00 | 43 | 1028.9 |
| 20260502061052 | 56 | 135 | 5.0 | 7.0 | 0.00 | 0.00 | 0.00 | 43 | 1028.9 |
| 20260502060553 | 56 | 135 | 3.0 | 3.0 | 0.00 | 0.00 | 0.00 | 43 | 1029.0 |
| 20260502060052 | 56 | 135 | 3.0 | 3.0 | 0.00 | 0.00 | 0.00 | 46 | 1029.0 |
| 20260502055554 | 55 | 135 | 2.0 | 6.0 | 0.00 | 0.00 | 0.00 | 49 | 1029.0 |
| 20260502055053 | 54 | 135 | 2.0 | 3.0 | 0.00 | 0.00 | 0.00 | 52 | 1029.0 |
| 20260502054553 | 54 | 135 | 3.0 | 6.0 | 0.00 | 0.00 | 0.00 | 52 | 1029.0 |
| 20260502054052 | 53 | 135 | 2.0 | 3.0 | 0.00 | 0.00 | 0.00 | 53 | 1029.0 |
| 20260502053553 | 52 | 143 | 3.0 | 6.0 | 0.00 | 0.00 | 0.00 | 54 | 1029.0 |
| 20260502053053 | 51 | 135 | 2.0 | 3.0 | 0.00 | 0.00 | 0.00 | 58 | 1029.0 |
| 20260502052552 | 50 | 135 | 2.0 | 3.0 | 0.00 | 0.00 | 0.00 | 60 | 1029.0 |
| 20260502052052 | 49 | 135 | 3.0 | 6.0 | 0.00 | 0.00 | 0.00 | 60 | 1029.0 |
| 20260502051554 | 48 | 135 | 5.0 | 6.0 | 0.00 | 0.00 | 0.00 | 60 | 1028.9 |
| 20260502051053 | 48 | 135 | 5.0 | 6.0 | 0.00 | 0.00 | 0.00 | 62 | 1028.8 |
| 20260502050553 | 47 | 135 | 6.0 | 8.0 | 0.00 | 0.00 | 0.00 | 65 | 1028.9 |
| 20260502050052 | 46 | 135 | 3.0 | 6.0 | 0.00 | 0.00 | 0.00 | 69 | 1028.9 |
| 20260502045553 | 45 | 139 | 1.0 | 2.0 | 0.00 | 0.00 | 0.00 | 70 | 1028.9 |
| 20260502045054 | 46 | 148 | 1.0 | 3.0 | 0.00 | 0.00 | 0.00 | 68 | 1028.8 |
| 20260502044553 | 46 | 135 | 3.0 | 5.0 | 0.00 | 0.00 | 0.00 | 70 | 1028.7 |
| 20260502044053 | 45 | 152 | 2.0 | 3.0 | 0.00 | 0.00 | 0.00 | 75 | 1028.8 |
| 20260502043553 | 45 | 145 | 1.0 | 3.0 | 0.00 | 0.00 | 0.00 | 76 | 1028.9 |
| 20260502043041 | 44 | 145 | 1.0 | 2.0 | 0.00 | 0.00 | 0.00 | 78 | 1028.9 |
| 20260502042540 | 44 | 155 | 3.0 | 5.0 | 0.00 | 0.00 | 0.00 | 77 | 1028.8 |
| 20260502042042 | 45 | 147 | 0.0 | 1.0 | 0.00 | 0.00 | 0.00 | 76 | 1029.0 |
| 20260502041541 | 45 | 158 | 2.0 | 3.0 | 0.00 | 0.00 | 0.00 | 74 | 1028.9 |
| 20260502041041 | 46 | 135 | 1.0 | 1.0 | 0.00 | 0.00 | 0.00 | 70 | 1028.9 |
| 20260502040540 | 46 | 158 | 1.0 | 2.0 | 0.00 | 0.00 | 0.00 | 69 | 1028.9 |
| 20260502035543 | 47 | 144 | 0.0 | 3.0 | 0.00 | 0.00 | 0.00 | 67 | 1028.7 |
| 20260502035042 | 47 | 135 | 2.0 | 3.0 | 0.00 | 0.00 | 0.00 | 66 | 1028.8 |
| 20260502034543 | 46 | 135 | 3.0 | 6.0 | 0.00 | 0.00 | 0.00 | 70 | 1028.8 |
| 20260502034043 | 46 | 158 | 1.0 | 2.0 | 0.00 | 0.00 | 0.00 | 70 | 1028.7 |
| 20260502033542 | 47 | 135 | 1.0 | 3.0 | 0.00 | 0.00 | 0.00 | 70 | 1028.7 |
| 20260502033043 | 46 | 135 | 5.0 | 6.0 | 0.00 | 0.00 | 0.00 | 72 | 1028.7 |
| 20260502032543 | 45 | 158 | 1.0 | 2.0 | 0.00 | 0.00 | 0.00 | 78 | 1028.7 |
| 20260502032042 | 46 | 158 | 2.0 | 3.0 | 0.00 | 0.00 | 0.00 | 71 | 1028.9 |
| 20260502031544 | 46 | 158 | 0.0 | 2.0 | 0.00 | 0.00 | 0.00 | 71 | 1028.8 |
| 20260502031043 | 46 | 158 | 0.0 | 1.0 | 0.00 | 0.00 | 0.00 | 70 | 1028.8 |
| 20260502030543 | 47 | 135 | 2.0 | 3.0 | 0.00 | 0.00 | 0.00 | 68 | 1028.9 |
| 20260502030042 | 48 | 135 | 3.0 | 3.0 | 0.00 | 0.00 | 0.00 | 67 | 1028.9 |
| 20260502025543 | 48 | 135 | 3.0 | 5.0 | 0.00 | 0.00 | 0.00 | 70 | 1028.8 |
| 20260502025042 | 47 | 135 | 3.0 | 6.0 | 0.00 | 0.00 | 0.00 | 70 | 1028.7 |
| 20260502024542 | 47 | 158 | 1.0 | 3.0 | 0.00 | 0.00 | 0.00 | 71 | 1028.8 |
| 20260502024042 | 47 | 135 | 6.0 | 8.0 | 0.00 | 0.00 | 0.00 | 72 | 1028.8 |
| 20260502023543 | 46 | 135 | 3.0 | 5.0 | 0.00 | 0.00 | 0.00 | 75 | 1028.8 |
| 20260502023042 | 45 | 135 | 7.0 | 8.0 | 0.00 | 0.00 | 0.00 | 82 | 1028.8 |
| 20260502022544 | 45 | 150 | 1.0 | 2.0 | 0.00 | 0.00 | 0.00 | 83 | 1028.8 |
| 20260502022043 | 45 | 135 | 1.0 | 1.0 | 0.00 | 0.00 | 0.00 | 83 | 1028.8 |
| 20260502021543 | 45 | 135 | 0.0 | 1.0 | 0.00 | 0.00 | 0.00 | 83 | 1028.8 |
| 20260502021042 | 45 | 135 | 3.0 | 6.0 | 0.00 | 0.00 | 0.00 | 82 | 1028.8 |
| 20260502020543 | 45 | 146 | 3.0 | 5.0 | 0.00 | 0.00 | 0.00 | 79 | 1028.7 |
| 20260502020043 | 46 | 158 | 3.0 | 5.0 | 0.00 | 0.00 | 0.00 | 76 | 1028.7 |
| 20260502015542 | 46 | 135 | 3.0 | 6.0 | 0.00 | 0.00 | 0.00 | 77 | 1028.7 |
| 20260502015043 | 46 | 158 | 2.0 | 3.0 | 0.00 | 0.00 | 0.00 | 80 | 1028.7 |
| 20260502014543 | 45 | 135 | 3.0 | 5.0 | 0.00 | 0.00 | 0.00 | 86 | 1028.7 |
| 20260502014042 | 44 | 145 | 0.0 | 1.0 | 0.00 | 0.00 | 0.00 | 86 | 1028.7 |
| 20260502013544 | 45 | 158 | 2.0 | 3.0 | 0.00 | 0.00 | 0.00 | 86 | 1028.6 |
| 20260502013043 | 44 | 135 | 1.0 | 1.0 | 0.00 | 0.00 | 0.00 | 86 | 1028.7 |
| 20260502012542 | 45 | 135 | 0.0 | 1.0 | 0.00 | 0.00 | 0.00 | 86 | 1028.5 |
| 20260502012044 | 44 | 135 | 3.0 | 3.0 | 0.00 | 0.00 | 0.00 | 86 | 1028.6 |
| 20260502011542 | 44 | 158 | 2.0 | 3.0 | 0.00 | 0.00 | 0.00 | 85 | 1028.7 |
| 20260502011044 | 44 | 142 | 1.0 | 1.0 | 0.00 | 0.00 | 0.00 | 84 | 1028.5 |
| 20260502010543 | 45 | 133 | 1.0 | 2.0 | 0.00 | 0.00 | 0.00 | 84 | 1028.6 |
| 20260502010042 | 45 | 112 | 1.0 | 1.0 | 0.00 | 0.00 | 0.00 | 84 | 1028.6 |
| 20260502005543 | 45 | 135 | 1.0 | 2.0 | 0.00 | 0.00 | 0.00 | 83 | 1028.5 |
| 20260502005043 | 45 | 135 | 0.0 | 1.0 | 0.00 | 0.00 | 0.00 | 83 | 1028.5 |
| 20260502004542 | 46 | 158 | 1.0 | 2.0 | 0.00 | 0.00 | 0.00 | 78 | 1028.5 |
| 20260502004042 | 45 | 158 | 1.0 | 1.0 | 0.00 | 0.00 | 0.00 | 82 | 1028.5 |
| 20260502003544 | 46 | 158 | 0.0 | 1.0 | 0.00 | 0.00 | 0.00 | 77 | 1028.5 |
| 20260502003043 | 46 | 147 | 0.0 | 0.0 | 0.00 | 0.00 | 0.00 | 76 | 1028.5 |
| 20260502002543 | 46 | 135 | 0.0 | 2.0 | 0.00 | 0.00 | 0.00 | 76 | 1028.4 |
| 20260502002042 | 46 | 158 | 1.0 | 2.0 | 0.00 | 0.00 | 0.00 | 76 | 1028.4 |
| 20260502001544 | 46 | 158 | 1.0 | 3.0 | 0.00 | 0.00 | 0.00 | 77 | 1028.5 |
| 20260502001043 | 47 | 155 | 3.0 | 3.0 | 0.00 | 0.00 | 0.00 | 77 | 1028.4 |
| 20260502000542 | 47 | 158 | 2.0 | 5.0 | 0.00 | 0.00 | 0.00 | 77 | 1028.6 |
| 20260502000044 | 47 | 158 | 3.0 | 3.0 | 0.00 | 0.00 | 0.00 | 77 | 1028.6 |
| 20260501235543 | 47 | 135 | 0.0 | 3.0 | 0.00 | 0.00 | 0.00 | 77 | 1028.5 |
| 20260501235043 | 47 | 135 | 2.0 | 3.0 | 0.00 | 0.00 | 0.00 | 77 | 1028.6 |
| 20260501234543 | 47 | 140 | 1.0 | 3.0 | 0.00 | 0.00 | 0.00 | 76 | 1028.5 |
| 20260501234043 | 47 | 135 | 3.0 | 5.0 | 0.00 | 0.00 | 0.00 | 76 | 1028.6 |
| 20260501233542 | 47 | 150 | 2.0 | 3.0 | 0.00 | 0.00 | 0.00 | 76 | 1028.6 |
| 20260501233043 | 47 | 135 | 2.0 | 3.0 | 0.00 | 0.00 | 0.00 | 75 | 1028.6 |
| 20260501232543 | 48 | 135 | 0.0 | 0.0 | 0.00 | 0.00 | 0.00 | 74 | 1028.7 |
| 20260501232042 | 48 | 152 | 1.0 | 2.0 | 0.00 | 0.00 | 0.00 | 74 | 1028.7 |
| 20260501231543 | 48 | 158 | 2.0 | 3.0 | 0.00 | 0.00 | 0.00 | 73 | 1028.7 |
| 20260501231042 | 49 | 150 | 0.0 | 2.0 | 0.00 | 0.00 | 0.00 | 73 | 1028.7 |
| 20260501230543 | 49 | 156 | 5.0 | 7.0 | 0.00 | 0.00 | 0.00 | 74 | 1028.6 |
| 20260501230042 | 49 | 158 | 5.0 | 6.0 | 0.00 | 0.00 | 0.00 | 74 | 1028.6 |
| 20260501225543 | 49 | 146 | 3.0 | 5.0 | 0.00 | 0.00 | 0.00 | 75 | 1028.7 |
| 20260501225043 | 48 | 157 | 2.0 | 3.0 | 0.00 | 0.00 | 0.00 | 76 | 1028.7 |
| 20260501224542 | 48 | 158 | 2.0 | 3.0 | 0.00 | 0.00 | 0.00 | 76 | 1028.7 |
| 20260501224043 | 48 | 135 | 0.0 | 1.0 | 0.00 | 0.00 | 0.00 | 76 | 1028.7 |
| 20260501223543 | 49 | 135 | 2.0 | 3.0 | 0.00 | 0.00 | 0.00 | 75 | 1028.8 |
| 20260501223042 | 49 | 135 | 1.0 | 2.0 | 0.00 | 0.00 | 0.00 | 76 | 1028.6 |
| 20260501222542 | 49 | 138 | 3.0 | 6.0 | 0.00 | 0.00 | 0.00 | 76 | 1028.7 |
| 20260501222043 | 49 | 135 | 0.0 | 1.0 | 0.00 | 0.00 | 0.00 | 75 | 1028.8 |
| 20260501221542 | 49 | 158 | 0.0 | 1.0 | 0.00 | 0.00 | 0.00 | 75 | 1028.7 |
| 20260501221043 | 50 | 135 | 0.0 | 2.0 | 0.00 | 0.00 | 0.00 | 75 | 1028.7 |
| 20260501220543 | 50 | 135 | 2.0 | 5.0 | 0.00 | 0.00 | 0.00 | 76 | 1028.6 |
| 20260501220042 | 49 | 135 | 1.0 | 3.0 | 0.00 | 0.00 | 0.00 | 77 | 1028.6 |
| 20260501215544 | 49 | 158 | 0.0 | 0.0 | 0.00 | 0.00 | 0.00 | 76 | 1028.6 |
| 20260501215043 | 50 | 158 | 0.0 | 2.0 | 0.00 | 0.00 | 0.00 | 77 | 1028.6 |
| 20260501214542 | 50 | 135 | 0.0 | 1.0 | 0.00 | 0.00 | 0.00 | 77 | 1028.7 |
| 20260501214042 | 50 | 143 | 0.0 | 1.0 | 0.00 | 0.00 | 0.00 | 77 | 1028.6 |
| 20260501213543 | 50 | 158 | 0.0 | 1.0 | 0.00 | 0.00 | 0.00 | 77 | 1028.6 |
| 20260501213042 | 50 | 153 | 2.0 | 3.0 | 0.00 | 0.00 | 0.00 | 77 | 1028.8 |
| 20260501212542 | 50 | 148 | 1.0 | 3.0 | 0.00 | 0.00 | 0.00 | 78 | 1028.8 |
| 20260501212043 | 50 | 135 | 1.0 | 2.0 | 0.00 | 0.00 | 0.00 | 79 | 1028.7 |
| 20260501211542 | 50 | 144 | 1.0 | 3.0 | 0.00 | 0.00 | 0.00 | 80 | 1028.6 |
| 20260501211043 | 50 | 145 | 0.0 | 1.0 | 0.00 | 0.00 | 0.00 | 80 | 1028.8 |
| 20260501210542 | 50 | 138 | 2.0 | 3.0 | 0.00 | 0.00 | 0.00 | 79 | 1028.7 |
| 20260501210043 | 50 | 158 | 1.0 | 2.0 | 0.00 | 0.00 | 0.00 | 80 | 1028.7 |
| 20260501205542 | 50 | 135 | 0.0 | 1.0 | 0.00 | 0.00 | 0.00 | 80 | 1028.8 |
| 20260501205042 | 50 | 135 | 2.0 | 3.0 | 0.00 | 0.00 | 0.00 | 80 | 1028.8 |
| 20260501204543 | 50 | 139 | 3.0 | 5.0 | 0.00 | 0.00 | 0.00 | 80 | 1028.7 |
| 20260501204042 | 50 | 158 | 3.0 | 5.0 | 0.00 | 0.00 | 0.00 | 80 | 1028.7 |
| 20260501203542 | 50 | 158 | 3.0 | 5.0 | 0.00 | 0.00 | 0.00 | 79 | 1028.7 |
| 20260501203043 | 50 | 135 | 1.0 | 2.0 | 0.00 | 0.00 | 0.00 | 79 | 1028.6 |
| 20260501202542 | 50 | 149 | 1.0 | 2.0 | 0.00 | 0.00 | 0.00 | 78 | 1028.6 |
| 20260501202042 | 51 | 154 | 1.0 | 3.0 | 0.00 | 0.00 | 0.00 | 78 | 1028.6 |
| 20260501201543 | 51 | 158 | 2.0 | 3.0 | 0.00 | 0.00 | 0.00 | 77 | 1028.6 |
| 20260501201043 | 51 | 135 | 3.0 | 3.0 | 0.00 | 0.00 | 0.00 | 76 | 1028.5 |
| 20260501200543 | 51 | 155 | 2.0 | 3.0 | 0.00 | 0.00 | 0.00 | 76 | 1028.5 |
| 20260501200043 | 52 | 135 | 1.0 | 2.0 | 0.00 | 0.00 | 0.00 | 76 | 1028.5 |
| 20260501195542 | 52 | 157 | 3.0 | 3.0 | 0.00 | 0.00 | 0.00 | 76 | 1028.5 |
| 20260501195043 | 52 | 158 | 3.0 | 6.0 | 0.00 | 0.00 | 0.00 | 75 | 1028.4 |
| 20260501194543 | 52 | 139 | 1.0 | 3.0 | 0.00 | 0.00 | 0.00 | 75 | 1028.3 |
| 20260501194042 | 53 | 158 | 1.0 | 2.0 | 0.00 | 0.00 | 0.00 | 74 | 1028.2 |
| 20260501193542 | 53 | 158 | 1.0 | 1.0 | 0.00 | 0.00 | 0.00 | 74 | 1028.2 |
| 20260501193043 | 53 | 158 | 1.0 | 1.0 | 0.00 | 0.00 | 0.00 | 74 | 1028.1 |
| 20260501192543 | 53 | 158 | 0.0 | 3.0 | 0.00 | 0.00 | 0.00 | 75 | 1028.0 |
| 20260501192042 | 53 | 135 | 0.0 | 1.0 | 0.00 | 0.00 | 0.00 | 75 | 1028.0 |
| 20260501191542 | 53 | 141 | 3.0 | 3.0 | 0.00 | 0.00 | 0.00 | 75 | 1028.0 |
| 20260501191043 | 54 | 145 | 1.0 | 3.0 | 0.00 | 0.00 | 0.00 | 75 | 1027.9 |
| 20260501190543 | 54 | 135 | 2.0 | 3.0 | 0.00 | 0.00 | 0.00 | 74 | 1027.9 |
| 20260501190042 | 54 | 158 | 0.0 | 0.0 | 0.00 | 0.00 | 0.00 | 74 | 1028.0 |
| 20260501185542 | 55 | 158 | 1.0 | 2.0 | 0.00 | 0.00 | 0.00 | 71 | 1027.8 |
| 20260501185043 | 55 | 158 | 1.0 | 2.0 | 0.00 | 0.00 | 0.00 | 71 | 1027.7 |
| 20260501184543 | 56 | 158 | 1.0 | 1.0 | 0.00 | 0.00 | 0.00 | 70 | 1027.7 |
| 20260501184042 | 56 | 158 | 0.0 | 1.0 | 0.00 | 0.00 | 0.00 | 70 | 1027.7 |
| 20260501183541 | 57 | 158 | 0.0 | 1.0 | 0.00 | 0.00 | 0.00 | 68 | 1027.5 |
| 20260501183043 | 58 | 158 | 0.0 | 0.0 | 0.00 | 0.00 | 0.00 | 66 | 1027.6 |
| 20260501182542 | 58 | 158 | 0.0 | 0.0 | 0.00 | 0.00 | 0.00 | 65 | 1027.6 |
| 20260501182042 | 59 | 158 | 1.0 | 1.0 | 0.00 | 0.00 | 0.00 | 64 | 1027.6 |
| 20260501181543 | 60 | 158 | 0.0 | 1.0 | 0.00 | 0.00 | 0.00 | 63 | 1027.5 |
| 20260501181043 | 60 | 135 | 0.0 | 0.0 | 0.00 | 0.00 | 0.00 | 63 | 1027.4 |
| 20260501180542 | 60 | 158 | 1.0 | 3.0 | 0.00 | 0.00 | 0.00 | 63 | 1027.4 |
| 20260501180042 | 61 | 158 | 2.0 | 3.0 | 0.00 | 0.00 | 0.00 | 61 | 1027.4 |
| 20260501175542 | 62 | 158 | 1.0 | 2.0 | 0.00 | 0.00 | 0.00 | 60 | 1027.3 |
| 20260501175043 | 62 | 158 | 1.0 | 2.0 | 0.00 | 0.00 | 0.00 | 60 | 1027.4 |
| 20260501174543 | 63 | 158 | 1.0 | 2.0 | 0.00 | 0.00 | 0.00 | 59 | 1027.3 |
| 20260501174042 | 64 | 158 | 1.0 | 1.0 | 0.00 | 0.00 | 0.00 | 52 | 1027.3 |
| 20260501173541 | 65 | 144 | 1.0 | 1.0 | 0.00 | 0.00 | 0.00 | 50 | 1027.4 |
| 20260501173043 | 66 | 158 | 0.0 | 1.0 | 0.00 | 0.00 | 0.00 | 46 | 1027.3 |
| 20260501172542 | 67 | 158 | 0.0 | 1.0 | 0.00 | 0.00 | 0.00 | 45 | 1027.4 |
| 20260501172043 | 66 | 158 | 0.0 | 0.0 | 0.00 | 0.00 | 0.00 | 44 | 1027.3 |
| 20260501171543 | 66 | 157 | 0.0 | 1.0 | 0.00 | 0.00 | 0.00 | 44 | 1027.4 |
| 20260501171042 | 66 | 135 | 2.0 | 3.0 | 0.00 | 0.00 | 0.00 | 41 | 1027.3 |
| 20260501170542 | 67 | 143 | 2.0 | 3.0 | 0.00 | 0.00 | 0.00 | 41 | 1027.3 |
| 20260501170043 | 67 | 158 | 1.0 | 2.0 | 0.00 | 0.00 | 0.00 | 41 | 1027.3 |
| 20260501165542 | 67 | 123 | 0.0 | 1.0 | 0.00 | 0.00 | 0.00 | 41 | 1027.3 |
| 20260501165042 | 67 | 124 | 1.0 | 2.0 | 0.00 | 0.00 | 0.00 | 41 | 1027.4 |
| 20260501164543 | 67 | 130 | 3.0 | 3.0 | 0.00 | 0.00 | 0.00 | 40 | 1027.3 |
| 20260501164043 | 67 | 135 | 1.0 | 2.0 | 0.00 | 0.00 | 0.00 | 41 | 1027.4 |
| 20260501163542 | 66 | 135 | 3.0 | 5.0 | 0.00 | 0.00 | 0.00 | 40 | 1027.4 |
| 20260501163042 | 67 | 150 | 3.0 | 6.0 | 0.00 | 0.00 | 0.00 | 40 | 1027.5 |
| 20260501162542 | 67 | 125 | 2.0 | 3.0 | 0.00 | 0.00 | 0.00 | 40 | 1027.6 |
| 20260501162043 | 68 | 140 | 1.0 | 3.0 | 0.00 | 0.00 | 0.00 | 40 | 1027.6 |
| 20260501161543 | 68 | 135 | 1.0 | 2.0 | 0.00 | 0.00 | 0.00 | 40 | 1027.6 |
| 20260501161042 | 67 | 135 | 2.0 | 3.0 | 0.00 | 0.00 | 0.00 | 40 | 1027.6 |
| 20260501160543 | 67 | 113 | 2.0 | 3.0 | 0.00 | 0.00 | 0.00 | 40 | 1027.5 |
| 20260501155537 | 67 | 130 | 5.0 | 6.0 | 0.00 | 0.00 | 0.00 | 38 | 1027.6 |
| 20260501155038 | 68 | 135 | 3.0 | 5.0 | 0.00 | 0.00 | 0.00 | 39 | 1027.6 |
| 20260501154538 | 68 | 121 | 2.0 | 5.0 | 0.00 | 0.00 | 0.00 | 40 | 1027.7 |
| 20260501154037 | 68 | 129 | 2.0 | 3.0 | 0.00 | 0.00 | 0.00 | 39 | 1027.7 |
| 20260501153538 | 68 | 158 | 1.0 | 2.0 | 0.00 | 0.00 | 0.00 | 40 | 1027.7 |
| 20260501153038 | 69 | 150 | 3.0 | 3.0 | 0.00 | 0.00 | 0.00 | 39 | 1027.8 |
| 20260501152537 | 68 | 136 | 1.0 | 3.0 | 0.00 | 0.00 | 0.00 | 39 | 1027.8 |
| 20260501152036 | 69 | 158 | 2.0 | 3.0 | 0.00 | 0.00 | 0.00 | 38 | 1027.8 |
| 20260501151538 | 69 | 156 | 1.0 | 3.0 | 0.00 | 0.00 | 0.00 | 39 | 1027.8 |
| 20260501151037 | 69 | 135 | 5.0 | 6.0 | 0.00 | 0.00 | 0.00 | 39 | 1027.8 |
| 20260501150537 | 69 | 135 | 3.0 | 6.0 | 0.00 | 0.00 | 0.00 | 38 | 1027.9 |
| 20260501150038 | 68 | 135 | 1.0 | 3.0 | 0.00 | 0.00 | 0.00 | 40 | 1027.9 |
| 20260501145537 | 68 | 144 | 3.0 | 6.0 | 0.00 | 0.00 | 0.00 | 40 | 1028.1 |
| 20260501145037 | 68 | 135 | 6.0 | 6.0 | 0.00 | 0.00 | 0.00 | 36 | 1028.2 |
| 20260501144538 | 69 | 140 | 3.0 | 3.0 | 0.00 | 0.00 | 0.00 | 35 | 1028.2 |
| 20260501144038 | 69 | 135 | 2.0 | 3.0 | 0.00 | 0.00 | 0.00 | 35 | 1028.2 |
| 20260501143537 | 69 | 135 | 3.0 | 3.0 | 0.00 | 0.00 | 0.00 | 36 | 1028.4 |
| 20260501143036 | 68 | 142 | 2.0 | 2.0 | 0.00 | 0.00 | 0.00 | 36 | 1028.4 |